Newberry, SC

4:03 PM EDT on September 19, 2017 (GMT -0400)
Newberry

Weather History for KEOE - November, 2011

Change the Weather History Date:

Friday, November 25, 2011

  Actual Average (KFDW) Record (KFDW)
Temperature  
Mean Temperature 49 °F -  
Max Temperature 66 °F 62 °F 73 °F (2010)
Min Temperature 32 °F 35 °F 24 °F (2013)
Degree Days  
Heating Degree Days 16    
Moisture  
Dew Point 34 °F    
Average Humidity 68    
Maximum Humidity 100    
Minimum Humidity 26    
Precipitation  
Precipitation 0.00 in - - ()
Sea Level Pressure  
Sea Level Pressure 30.38 in    
Wind  
Wind Speed 2 mph (SW)    
Max Wind Speed 8 mph    
Max Gust Speed -    
Visibility 10 miles    
Events      
Averages and records for this station are not official NWS values.
T = Trace of Precipitation, MM = Missing Value Source: NWS Daily Summary

Daily Weather History Graph

Daily Weather History Graph

Search for Another Location

Airport or City:

Trip Planner

Search our weather history database for the weather conditions in past years. The results will help you decide how hot, cold, wet, or windy it might be!

Date:

Astronomy

Nov. 25, 2011 Rise Set
Actual Time 7:08 AM EST 5:17 PM EST
Civil Twilight 6:41 AM EST 5:45 PM EST
Nautical Twilight 6:10 AM EST 6:15 PM EST
Astronomical Twilight 5:40 AM EST 6:45 PM EST
Moon 7:32 AM EST (11/25) 5:46 PM EST (11/25)
Length of Visible Light 11h 03m
Length of Day
10h 09m
New Moon, 0% of the Moon is Illuminated
Nov 25
New Moon
Dec 2
First Quarter
Dec 10
Full
Dec 17
Last Quarter
Dec 24
New

Hourly Weather History & Observations

Time (EST) Temp. Windchill Dew Point Humidity Pressure Visibility Wind Dir Wind Speed Gust Speed Precip Events Conditions
12:35 AM 35.6 °F - 35.6 °F 100% 30.41 in 10.0 mi Calm Calm - N/A   Clear
12:55 AM 37.4 °F - 35.6 °F 93% 30.40 in 10.0 mi Calm Calm - N/A   Clear
1:15 AM 35.6 °F - 33.8 °F 93% 30.40 in 10.0 mi Calm Calm - N/A   Clear
1:35 AM 35.6 °F - 33.8 °F 93% 30.39 in 10.0 mi Calm Calm - N/A   Clear
1:55 AM 35.6 °F 31.7 °F 33.8 °F 93% 30.39 in 10.0 mi South 4.6 mph - N/A   Clear
2:15 AM 35.6 °F 32.8 °F 35.6 °F 100% 30.38 in 10.0 mi South 3.5 mph - N/A   Clear
2:35 AM 35.6 °F 32.8 °F 35.6 °F 100% 30.39 in 10.0 mi South 3.5 mph - N/A   Clear
2:55 AM 33.8 °F 30.8 °F 33.8 °F 100% 30.39 in 10.0 mi South 3.5 mph - N/A   Clear
3:15 AM 33.8 °F - 32.0 °F 93% 30.39 in 10.0 mi Calm Calm - N/A   Clear
3:35 AM 33.8 °F - 32.0 °F 93% 30.39 in 10.0 mi Calm Calm - N/A   Clear
3:55 AM 32.0 °F 28.7 °F 32.0 °F 100% 30.39 in 10.0 mi West 3.5 mph - N/A   Clear
4:15 AM 32.0 °F 28.7 °F 32.0 °F 100% 30.39 in 10.0 mi WSW 3.5 mph - N/A   Clear
4:35 AM 33.8 °F 30.8 °F 32.0 °F 93% 30.39 in 10.0 mi West 3.5 mph - N/A   Clear
4:55 AM 32.0 °F - 32.0 °F 100% 30.39 in 10.0 mi Calm Calm - N/A   Clear
5:35 AM 33.8 °F - 33.8 °F 100% 30.39 in 10.0 mi Calm Calm - N/A   Clear
5:55 AM 33.8 °F - 33.8 °F 100% 30.40 in 10.0 mi Calm Calm - N/A   Clear
6:15 AM 33.8 °F - 32.0 °F 93% 30.40 in 10.0 mi Calm Calm - N/A   Clear
6:35 AM 33.8 °F - 32.0 °F 93% 30.41 in 10.0 mi Calm Calm - N/A   Clear
6:55 AM 33.8 °F - 33.8 °F 100% 30.41 in 10.0 mi Calm Calm - N/A   Clear
7:15 AM 32.0 °F - 32.0 °F 100% 30.41 in 10.0 mi Calm Calm - N/A   Clear
7:35 AM 32.0 °F - 32.0 °F 100% 30.42 in 10.0 mi Calm Calm - N/A   Clear
7:55 AM 32.0 °F - 32.0 °F 100% 30.42 in 10.0 mi Calm Calm - N/A   Clear
8:15 AM 32.0 °F - 32.0 °F 100% 30.43 in 10.0 mi Calm Calm - N/A   Clear
8:35 AM 33.8 °F - 33.8 °F 100% 30.43 in 10.0 mi Calm Calm - N/A   Clear
9:15 AM 42.8 °F - 35.6 °F 76% 30.44 in 10.0 mi Calm Calm - N/A   Unknown
9:35 AM 46.4 °F - 35.6 °F 66% 30.44 in 10.0 mi Calm Calm - N/A   Unknown
9:55 AM 50.0 °F - 35.6 °F 58% 30.44 in 10.0 mi Calm Calm - N/A   Unknown
10:15 AM 51.8 °F - 37.4 °F 58% 30.44 in 10.0 mi West 5.8 mph - N/A   Unknown
10:35 AM 53.6 °F - 37.4 °F 54% 30.44 in 10.0 mi WSW 4.6 mph - N/A   Clear
10:55 AM 55.4 °F - 37.4 °F 51% 30.44 in 10.0 mi SW 6.9 mph - N/A   Clear
11:15 AM 59.0 °F - 35.6 °F 42% 30.43 in 10.0 mi SW 6.9 mph - N/A   Clear
11:35 AM 59.0 °F - 33.8 °F 39% 30.42 in 10.0 mi SW 6.9 mph - N/A   Clear
11:55 AM 60.8 °F - 33.8 °F 36% 30.41 in 10.0 mi SW 6.9 mph - N/A   Clear
12:15 PM 60.8 °F - 33.8 °F 36% 30.40 in 10.0 mi WSW 5.8 mph - N/A   Clear
12:55 PM 62.6 °F - 32.0 °F 32% 30.39 in 10.0 mi SW 4.6 mph - N/A   Clear
1:15 PM 62.6 °F - 32.0 °F 32% 30.38 in 10.0 mi SW 8.1 mph - N/A   Clear
1:35 PM 64.4 °F - 32.0 °F 30% 30.37 in 10.0 mi SSW 4.6 mph - N/A   Clear
1:55 PM 64.4 °F - 32.0 °F 30% 30.36 in 10.0 mi Calm Calm - N/A   Clear
2:15 PM 64.4 °F - 32.0 °F 30% 30.35 in 10.0 mi WSW 4.6 mph - N/A   Clear
2:35 PM 66.2 °F - 32.0 °F 28% 30.34 in 10.0 mi WSW 4.6 mph - N/A   Clear
2:55 PM 66.2 °F - 32.0 °F 28% 30.33 in 10.0 mi West 4.6 mph - N/A   Clear
3:35 PM 66.2 °F - 30.2 °F 26% 30.32 in 10.0 mi SSW 5.8 mph - N/A   Clear
3:55 PM 66.2 °F - 30.2 °F 26% 30.32 in 10.0 mi South 3.5 mph - N/A   Clear
4:35 PM 64.4 °F - 30.2 °F 28% 30.32 in 10.0 mi SSW 3.5 mph - N/A   Clear
4:55 PM 64.4 °F - 30.2 °F 28% 30.31 in 10.0 mi Calm Calm - N/A   Clear
5:15 PM 62.6 °F - 32.0 °F 32% 30.31 in 10.0 mi SW 3.5 mph - N/A   Clear
5:35 PM 59.0 °F - 33.8 °F 39% 30.31 in 10.0 mi SW 3.5 mph - N/A   Clear
5:55 PM 55.4 °F - 35.6 °F 47% 30.30 in 10.0 mi Calm Calm - N/A   Clear
6:35 PM 51.8 °F - 35.6 °F 54% 30.31 in 10.0 mi Calm Calm - N/A   Clear
6:55 PM 48.2 °F - 35.6 °F 62% 30.31 in 10.0 mi Calm Calm - N/A   Clear
7:15 PM 48.2 °F - 35.6 °F 62% 30.32 in 10.0 mi Calm Calm - N/A   Clear
7:35 PM 48.2 °F - 35.6 °F 62% 30.32 in 10.0 mi Calm Calm - N/A   Clear
7:55 PM 46.4 °F - 33.8 °F 62% 30.32 in 10.0 mi Calm Calm - N/A   Clear
8:55 PM 44.6 °F - 35.6 °F 71% 30.32 in 10.0 mi Calm Calm - N/A   Clear
9:35 PM 42.8 °F - 35.6 °F 76% 30.32 in 10.0 mi Calm Calm - N/A   Clear
9:55 PM 44.6 °F - 35.6 °F 71% 30.33 in 10.0 mi Calm Calm - N/A   Clear
10:15 PM 42.8 °F - 35.6 °F 76% 30.33 in 10.0 mi Calm Calm - N/A   Clear
10:35 PM 41.0 °F - 35.6 °F 81% 30.33 in 10.0 mi Calm Calm - N/A   Clear
10:55 PM 42.8 °F - 37.4 °F 81% 30.34 in 10.0 mi Calm Calm - N/A   Clear
11:35 PM 41.0 °F - 37.4 °F 87% 30.34 in 10.0 mi Calm Calm - N/A   Clear
11:55 PM 41.0 °F - 37.4 °F 87% 30.34 in 10.0 mi Calm Calm - N/A   Clear